Flag for Denmark Weather past 2 weeks in Copenhagen, Denmark

Now
54 °F

Broken clouds.


Feels Like: 49 °F
Forecast: 48 / 56 °F
Wind: 17 mph from South

Location: Koebenhavn-Kastrup Airport

Current Time: May 28, 2015 at 10:23:42 AM

Latest Report: May 28, 2015 at 9:50 AM


Visibility: N/A

Pressure: 29.80 "Hg

Humidity: 82%

Dew point: 48 °F

Location of CopenhagenLocation

Historic Weather in Copenhagen — Graph

°F

Copenhagen temperature yesterday

Maximum temperature yesterday: 57 °F (at 12:20 PM)
Minimum temperature yesterday: 45 °F (at 1:20 AM)
Average temperature yesterday: 51 °F

Past Weeks' High & Low Weather Summary

 TemperatureHumidityPressure
High63 °F (May 14, 3:20 PM)100% (May 16, 7:20 PM)30.24 "Hg (May 16, 7:20 PM)
Low39 °F (May 24, 4:50 AM)36% (May 15, 11:20 AM)29.53 "Hg (May 19, 3:20 AM)
Average51 °F74%29.94 "Hg
* Reported May 13 9:20 AM — May 28 9:20 AM, Copenhagen, Weather by CustomWeather, © 2015

Note: Actual official high and low records may vary slightly from our data, if they occured in-between our weather recording intervals... More about our weather records

Advertising

Copenhagen weather history for previous 24 hours

 ConditionsComfort  
Time TempWeatherWind HumidityBarometerVisibility
9:20 AM
Thu, May 28
54 °FSunny.17 mph77%29.80 "Hg10 mi
8:50 AM54 °FSunny.17 mph77%29.83 "Hg10 mi
8:20 AM54 °FSunny.15 mph77%29.83 "Hg10 mi
7:50 AM54 °FSunny.16 mph77%29.83 "Hg10 mi
7:20 AM52 °FSunny.18 mph82%29.83 "Hg10 mi
6:53 AM52 °FSunny.18 mph82%29.86 "Hg10 mi
6:20 AM52 °FPartly sunny.16 mph82%29.86 "HgN/A
5:20 AM50 °FPassing clouds.10 mph88%29.89 "HgN/A
4:50 AM50 °FClear.8 mph82%29.92 "Hg10 mi
4:20 AM48 °FClear.6 mph82%29.92 "Hg10 mi
3:50 AM46 °FClear.5 mph87%29.92 "Hg10 mi
3:20 AM43 °FClear.5 mph93%29.95 "Hg10 mi
2:50 AM45 °FClear.6 mph87%29.95 "Hg10 mi
2:20 AM43 °FClear.6 mph93%29.95 "Hg10 mi
1:50 AM43 °FClear.6 mph87%29.98 "Hg10 mi
1:20 AM45 °FClear.2 mph81%29.98 "Hg10 mi
12:50 AM45 °FPassing clouds.6 mph81%29.98 "HgN/A
12:20 AM46 °FClear.6 mph76%30.01 "Hg10 mi
11:50 PM
Wed, May 27
46 °FClear.9 mph82%30.01 "Hg10 mi
11:20 PM48 °FClear.8 mph76%30.01 "Hg10 mi
10:50 PM48 °FClear.7 mph71%30.01 "Hg10 mi
10:20 PM50 °FPassing clouds.8 mph71%30.01 "HgN/A
9:50 PM52 °FPassing clouds.9 mph67%30.01 "HgN/A
9:20 PM52 °FPassing clouds.12 mph67%30.01 "HgN/A
8:50 PM54 °FPassing clouds.13 mph63%30.01 "HgN/A
8:20 PM54 °FPassing clouds.14 mph58%30.01 "HgN/A
7:50 PM55 °FPassing clouds.15 mph59%30.01 "HgN/A
7:20 PM55 °FScattered clouds.16 mph59%30.01 "HgN/A
6:50 PM55 °FScattered clouds.14 mph59%30.01 "HgN/A
6:20 PM55 °FPartly sunny.16 mph55%30.01 "HgN/A
5:50 PM55 °FPartly sunny.18 mph55%30.01 "HgN/A
5:20 PM55 °FPartly sunny.17 mph55%30.01 "HgN/A
4:50 PM55 °FPartly sunny.16 mph55%30.01 "HgN/A
4:20 PM55 °FPartly sunny.16 mph55%30.01 "HgN/A
3:50 PM55 °FPartly sunny.16 mph55%30.01 "HgN/A
3:20 PM55 °FPartly sunny.18 mph55%30.01 "HgN/A
2:50 PM55 °FPartly sunny.17 mph55%30.01 "HgN/A
2:20 PM55 °FSunny.16 mph55%30.01 "Hg10 mi
1:50 PM55 °FPartly sunny.17 mph55%30.01 "HgN/A
1:20 PM55 °FPartly sunny.16 mph59%30.01 "HgN/A
12:50 PM55 °FSunny.17 mph59%30.01 "Hg10 mi
12:20 PM57 °FPartly sunny.18 mph55%30.01 "HgN/A
11:50 AM54 °FPartly sunny.18 mph58%30.01 "HgN/A
11:20 AM54 °FPartly sunny.16 mph58%30.01 "HgN/A
10:50 AM52 °FPartly sunny.14 mph62%30.01 "HgN/A
10:20 AM54 °FPartly sunny.15 mph63%30.01 "HgN/A
Weather by CustomWeather, © 2015

See weather overviewHow to use our weather pages